Flag Weather past 2 weeks in Kitchener, Ontario, Canada

Now
28 °F

Light snow. Overcast.


Feels Like: 28 °F
Forecast: 25 / 33 °F
Wind: No wind

Location: Waterloo Well

Current Time: Nov 27, 2014 at 8:35:07 AM

Latest Report: Nov 27, 2014 at 8:00 AM


Visibility: 9 mi

Pressure: 30.07 "Hg

Humidity: 93%

Dew point: 27 °F

Location of KitchenerLocation

Historic Weather in Kitchener — Graph

°F

Kitchener temperature yesterday

Maximum temperature yesterday: 32 °F (at 11:00 AM)
Minimum temperature yesterday: 30 °F (at 12:00 AM)
Average temperature yesterday: 31 °F

Past Weeks' High & Low Weather Summary

 TemperatureHumidityPressure
High57 °F (Nov 24, 11:00 AM)100% (Nov 14, 6:00 AM)30.47 "Hg (Nov 14, 6:00 AM)
Low9 °F (Nov 21, 7:00 AM)54% (Nov 21, 1:00 PM)29.15 "Hg (Nov 24, 6:00 AM)
Average29 °F83%29.97 "Hg
* Reported Nov 12 7:00 AM — Nov 27 7:00 AM, Kitchener, Weather by CustomWeather, © 2014

Note: Actual official high and low records may vary slightly from our data, if they occured in-between our weather recording intervals... More about our weather records

Advertising

Kitchener weather history for previous 24 hours

 ConditionsComfort  
Time TempWeatherWind HumidityBarometerVisibility
7:00 AM
Nov 27
28 °FLight snow. Overcast.2 mph93%30.08 "Hg9 mi
6:56 AM28 °FLight snow. Mostly cloudy.2 mph93%30.07 "Hg9 mi
6:00 AM28 °FMostly cloudy.2 mph93%30.06 "Hg9 mi
5:00 AM28 °FLight snow. Overcast.2 mph86%30.06 "Hg9 mi
4:00 AM28 °FLight snow. Mostly cloudy.2 mph86%30.06 "Hg9 mi
3:00 AM28 °FLight snow. Overcast.No wind86%30.07 "Hg9 mi
2:00 AM28 °FLight snow. Overcast.2 mph86%30.07 "Hg9 mi
1:00 AM30 °FLight snow. Overcast.No wind80%30.07 "Hg9 mi
12:00 AM30 °FLight snow. Overcast.2 mph80%30.08 "Hg9 mi
11:00 PM
Nov 26
30 °FLight snow. Overcast.No wind80%30.07 "Hg9 mi
10:00 PM30 °FLight snow. Overcast.3 mph86%30.08 "Hg9 mi
9:00 PM30 °FLight snow. Overcast.3 mph80%30.09 "Hg9 mi
8:00 PM30 °FLight snow. Overcast.3 mph80%30.10 "Hg9 mi
7:00 PM30 °FOvercast.6 mph80%30.09 "Hg9 mi
6:02 PM30 °FOvercast.2 mph80%30.11 "Hg9 mi
5:00 PM30 °FOvercast.5 mph80%30.11 "Hg9 mi
4:00 PM30 °FOvercast.7 mph86%30.12 "Hg9 mi
3:00 PM32 °FOvercast.8 mph75%30.13 "Hg9 mi
2:00 PM32 °FCloudy.7 mph75%30.14 "Hg9 mi
1:00 PM32 °FLight snow. Mostly cloudy.8 mph75%30.16 "Hg9 mi
12:52 PM32 °FLight snow. Mostly cloudy.7 mph75%30.16 "Hg9 mi
12:00 PM32 °FOvercast.8 mph75%30.17 "Hg9 mi
11:00 AM32 °FOvercast.7 mph75%30.16 "Hg9 mi
10:00 AM30 °FOvercast.5 mph86%30.18 "Hg9 mi
9:00 AM30 °FOvercast.5 mph86%30.22 "Hg9 mi
8:00 AM30 °FOvercast.3 mph86%30.21 "Hg9 mi
Weather by CustomWeather, © 2014

See weather overviewHow to use our weather pages